sat.trackr.live / text

‹ back to catalog

ONEWEB-0686

NORAD 56721 · 2023-068M

PAYLOAD ACTIVE UNKNOWN

§ Identity

Operator
Country
UK
Launch date
2023-05-20
Launch site
AFWTR
Launch vehicle
Mass (kg)
RCS (m²)

Purposes: comms

External: N2YO · Heavens-Above · Gunter

§ Orbital elements

Epoch: 2026-05-25T04:14:53.937024Z

Period
109.37 min
Inclination
87.9097°
Eccentricity
0.0001826
Mean motion
13.16593760 rev/d
Perigee alt
1,196.4 km
Apogee alt
1,199.1 km
Semi-major
7,575.9 km
B*
1.4459e-4
RAAN
233.3636°
Arg perigee
109.4607°
Mean anomaly
250.6721°
Rev number
14,868

§ Raw data

ONEWEB-06861 56721U 23068M   26145.17701316  .00000068  00000+0  14459-3 0  99932 56721  87.9097 233.3636 0001826 109.4607 250.6721 13.16593760148684

JSON: /api/v1/satellites/56721 · /tle

For live sub-satellite position, see the globe view (requires WebGL).

§ Visibility from observer

Set your observer location to see the next 7 days of passes ≥ 10°. The values pass through the URL so the page stays shareable.

No JS? Fill the form by hand. The geolocation button needs JavaScript.